KL7AF Weather Reports


Display with metric or nautical units.
time (UTC)temp
F
wind
direction
speed
MPH
gust
MPH
rain 1hr
in
rain 24hr
in
rain mn
in
humidity
%
barometer
mb
20260906070214 78 334 1.0 2.0 0.00 0.00 0.00 84 1076.5
20260906065713 78 10 1.0 3.0 0.00 0.00 0.00 84 1076.5
20260906065213 78 309 0.0 1.0 0.00 0.00 0.00 84 1076.2
20260906064713 78 0 0.0 0.0 0.00 0.00 0.00 83 1076.0
20260906064212 79 326 0.0 0.0 0.00 0.00 0.00 84 1075.9
20260906063711 79 0 0.0 0.0 0.00 0.00 0.00 85 1075.8
20260906063211 79 297 0.0 1.0 0.00 0.00 0.00 85 1075.7
20260906062711 79 277 0.0 0.0 0.00 0.00 0.00 85 1075.7
20260906062211 79 288 0.0 0.0 0.00 0.00 0.00 85 1075.6
20260906061711 79 14 1.0 1.0 0.00 0.00 0.00 87 1075.7
20260906061210 79 0 0.0 0.0 0.00 0.00 0.00 85 1075.4
20260906060710 79 0 0.0 0.0 0.00 0.00 0.00 86 1075.4
20260906060209 79 0 0.0 0.0 0.00 0.00 0.00 86 1075.4
20260906055708 79 0 0.0 0.0 0.00 0.00 0.00 87 1075.4
20260906055208 78 228 0.0 1.0 0.00 0.00 0.00 86 1075.4
20260906054708 78 217 1.0 1.0 0.00 0.00 0.00 87 1075.5
20260906054207 78 205 1.0 2.0 0.00 0.00 0.00 87 1075.6
20260906053706 78 280 0.0 1.0 0.00 0.00 0.00 87 1075.6
20260906053205 78 198 0.0 0.0 0.00 0.00 0.00 88 1075.6
20260906052705 77 0 0.0 0.0 0.00 0.00 0.00 90 1075.7
20260906052204 77 82 0.0 1.0 0.00 0.00 0.00 90 1075.6
20260906051704 77 0 0.0 0.0 0.00 0.00 0.00 90 1075.4
20260906051203 77 273 0.0 0.0 0.00 0.00 0.00 89 1075.2
20260906050703 77 325 0.0 1.0 0.00 0.00 0.00 89 1075.2
20260906050202 78 18 0.0 0.0 0.00 0.00 0.00 89 1075.2
20260906045702 78 0 0.0 0.0 0.00 0.00 0.00 89 1075.2
20260906045201 78 0 0.0 0.0 0.00 0.00 0.00 88 1075.3
20260906044700 78 0 0.0 0.0 0.00 0.00 0.00 88 1075.5
20260906044200 78 0 0.0 0.0 0.00 0.00 0.00 88 1075.6
20260906043659 78 0 0.0 0.0 0.00 0.00 0.00 88 1075.6
20260906043159 78 0 0.0 0.0 0.00 0.00 0.00 88 1075.7
20260906042658 78 0 0.0 0.0 0.00 0.00 0.00 88 1075.7
20260906042158 78 0 0.0 0.0 0.00 0.00 0.00 87 1075.7
20260906041658 78 0 0.0 0.0 0.00 0.00 0.00 87 1075.7
20260906041157 78 0 0.0 0.0 0.00 0.00 0.00 86 1075.7
20260906040656 78 197 0.0 0.0 0.00 0.00 0.00 86 1075.6
20260906040155 78 122 0.0 0.0 0.00 0.00 0.00 87 1075.6
20260906035655 78 21 0.0 0.0 0.00 0.00 0.00 86 1075.6
20260906035154 79 0 0.0 0.0 0.00 0.00 0.00 86 1075.6
20260906034654 79 0 0.0 0.0 0.00 0.00 0.00 86 1075.6
20260906034154 79 254 0.0 0.0 0.00 0.00 0.00 85 1075.7
20260906033653 79 0 0.0 0.0 0.00 0.00 0.00 85 1075.7
20260906033156 79 0 0.0 0.0 0.00 0.00 0.00 84 1075.6
20260906032652 79 164 0.0 0.0 0.00 0.00 0.00 84 1075.6
20260906032152 79 0 0.0 0.0 0.00 0.00 0.00 83 1075.6
20260906031651 79 144 0.0 1.0 0.00 0.00 0.00 83 1075.5
20260906031151 79 302 0.0 0.0 0.00 0.00 0.00 83 1075.5
20260906030651 79 0 0.0 0.0 0.00 0.00 0.00 83 1075.6
20260906030150 79 0 0.0 0.0 0.00 0.00 0.00 84 1075.6
20260906025650 79 0 0.0 0.0 0.00 0.00 0.00 82 1075.6
20260906025149 79 57 0.0 0.0 0.00 0.00 0.00 82 1075.5
20260906024648 79 326 0.0 1.0 0.00 0.00 0.00 82 1075.5
20260906024147 80 0 0.0 0.0 0.00 0.00 0.00 81 1075.5
20260906023647 80 0 0.0 0.0 0.00 0.00 0.00 82 1075.3
20260906023146 80 0 0.0 0.0 0.00 0.00 0.00 81 1075.3
20260906022646 80 0 0.0 0.0 0.00 0.00 0.00 81 1075.2
20260906022145 80 0 0.0 0.0 0.00 0.00 0.00 81 1075.2
20260906021645 80 0 0.0 0.0 0.00 0.00 0.00 80 1075.1
20260906021144 80 319 0.0 0.0 0.00 0.00 0.00 81 1075.0
20260906020643 80 0 0.0 0.0 0.00 0.00 0.00 79 1075.0
20260906020142 80 1 0.0 1.0 0.00 0.00 0.00 80 1074.9
20260906015641 81 57 0.0 0.0 0.00 0.00 0.00 78 1074.9
20260906015141 81 0 0.0 0.0 0.00 0.00 0.00 78 1074.8
20260906014640 81 0 0.0 0.0 0.00 0.00 0.00 77 1074.8
20260906014139 81 0 0.0 0.0 0.00 0.00 0.00 77 1074.7
20260906013638 81 70 0.0 0.0 0.00 0.00 0.00 77 1074.6
20260906013137 81 0 0.0 0.0 0.00 0.00 0.00 76 1074.5
20260906012637 82 10 0.0 0.0 0.00 0.00 0.00 76 1074.5
20260906012136 82 0 0.0 0.0 0.00 0.00 0.00 76 1074.5
20260906011635 82 344 0.0 1.0 0.00 0.00 0.00 76 1074.5
20260906011135 82 0 0.0 0.0 0.00 0.00 0.00 74 1074.4
20260906010634 83 0 0.0 0.0 0.00 0.00 0.00 73 1074.2
20260906010134 83 0 0.0 0.0 0.00 0.00 0.00 73 1074.1
20260906005634 83 0 0.0 0.0 0.00 0.00 0.00 73 1074.1
20260906005133 84 0 0.0 0.0 0.00 0.00 0.00 71 1074.0
20260906004632 84 0 0.0 0.0 0.00 0.00 0.00 71 1073.9
20260906004132 84 24 0.0 0.0 0.00 0.00 0.00 69 1073.9
20260906003632 84 0 0.0 0.0 0.00 0.00 0.00 69 1073.9
20260906003131 84 25 0.0 0.0 0.00 0.00 0.00 68 1073.9
20260906002631 85 0 0.0 0.0 0.00 0.00 0.00 66 1073.9
20260906002130 85 0 0.0 0.0 0.00 0.00 0.00 67 1074.0
20260906001630 85 255 0.0 2.0 0.00 0.00 0.00 66 1074.0
20260906001129 85 147 1.0 2.0 0.00 0.00 0.00 67 1074.1
20260906000629 86 134 1.0 2.0 0.00 0.00 0.00 68 1074.2
20260906000121 86 128 0.0 1.0 0.00 0.00 0.00 69 1074.2
20260905235620 87 322 0.0 1.0 0.00 0.00 0.00 68 1074.1
20260905235119 88 17 0.0 1.0 0.00 0.00 0.00 67 1074.1
20260905234619 89 157 1.0 2.0 0.00 0.00 0.00 66 1073.7
20260905234119 91 44 1.0 2.0 0.00 0.00 0.00 62 1073.4
20260905233619 93 109 1.0 2.0 0.00 0.00 0.00 60 1072.9
20260905233118 94 95 0.0 1.0 0.00 0.00 0.00 60 1072.6
20260905232618 94 345 0.0 1.0 0.00 0.00 0.00 58 1072.3
20260905232118 95 67 0.0 2.0 0.00 0.00 0.00 59 1072.1
20260905231618 95 325 0.0 1.0 0.00 0.00 0.00 58 1072.0
20260905231118 96 13 0.0 0.0 0.00 0.00 0.00 60 1013.5
20260905230617 96 0 0.0 0.0 0.00 0.00 0.00 59 1013.5
20260905230116 96 0 0.0 0.0 0.00 0.00 0.00 58 1013.4
20260905225616 97 0 0.0 0.0 0.00 0.00 0.00 58 1013.4
20260905225114 97 0 0.0 0.0 0.00 0.00 0.00 58 1013.5
20260905224614 98 8 0.0 0.0 0.00 0.00 0.00 56 1013.4
20260905224113 99 207 0.0 0.0 0.00 0.00 0.00 54 1013.4
20260905223612 99 0 0.0 0.0 0.00 0.00 0.00 53 1013.5
20260905223111 100 0 0.0 0.0 0.00 0.00 0.00 52 1071.4
20260905222609 101 0 0.0 0.0 0.00 0.00 0.00 50 1013.6
20260905222109 102 339 0.0 0.0 0.00 0.00 0.00 48 1013.6
20260905221608 102 213 0.0 0.0 0.00 0.00 0.00 47 1013.6
20260905221107 103 0 0.0 0.0 0.00 0.00 0.00 47 1013.7
20260905220606 103 8 0.0 1.0 0.00 0.00 0.00 48 1013.7
20260905220105 103 327 0.0 0.0 0.00 0.00 0.00 45 1013.7
20260905215605 103 93 0.0 0.0 0.00 0.00 0.00 44 1013.8
20260905215104 102 24 0.0 0.0 0.00 0.00 0.00 47 1013.7
20260905214603 102 0 0.0 0.0 0.00 0.00 0.00 47 1013.7
20260905214101 102 17 0.0 1.0 0.00 0.00 0.00 47 1013.7
20260905213601 102 352 0.0 0.0 0.00 0.00 0.00 48 1013.8
20260905213100 102 358 0.0 1.0 0.00 0.00 0.00 47 1013.8
20260905212559 101 31 0.0 0.0 0.00 0.00 0.00 50 1013.7
20260905212058 101 25 0.0 0.0 0.00 0.00 0.00 50 1013.7
20260905211557 100 0 0.0 1.0 0.00 0.00 0.00 47 1013.8
20260905211057 100 10 0.0 0.0 0.00 0.00 0.00 47 1013.8
20260905210555 100 350 0.0 0.0 0.00 0.00 0.00 47 1013.8
20260905210054 101 350 0.0 0.0 0.00 0.00 0.00 46 1013.7
20260905205552 100 9 0.0 0.0 0.00 0.00 0.00 48 1013.7
20260905205051 100 1 0.0 1.0 0.00 0.00 0.00 49 1013.8
20260905204551 100 233 0.0 0.0 0.00 0.00 0.00 47 1013.9
20260905204050 100 3 0.0 0.0 0.00 0.00 0.00 49 1013.9
20260905203549 100 312 0.0 0.0 0.00 0.00 0.00 49 1014.0
20260905203048 101 4 0.0 1.0 0.00 0.00 0.00 48 1014.2
20260905202547 102 1 0.0 0.0 0.00 0.00 0.00 47 1014.2
20260905202046 102 359 0.0 1.0 0.00 0.00 0.00 47 1014.2
20260905201546 102 349 0.0 1.0 0.00 0.00 0.00 46 1014.3
20260905201045 103 1 0.0 1.0 0.00 0.00 0.00 45 1014.4
20260905200544 103 262 0.0 1.0 0.00 0.00 0.00 45 1014.4
20260905200043 104 310 0.0 0.0 0.00 0.00 0.00 44 1014.6
20260905195543 104 8 0.0 1.0 0.00 0.00 0.00 45 1014.7
20260905195042 103 154 0.0 0.0 0.00 0.00 0.00 47 1014.8
20260905194541 102 346 0.0 0.0 0.00 0.00 0.00 45 1014.7
20260905194041 102 283 0.0 1.0 0.00 0.00 0.00 45 1014.8
20260905193540 101 348 0.0 1.0 0.00 0.00 0.00 47 1014.8
20260905193039 101 340 0.0 0.0 0.00 0.00 0.00 47 1014.8
20260905192538 101 12 1.0 1.0 0.00 0.00 0.00 49 1014.8
20260905192036 101 55 0.0 0.0 0.00 0.00 0.00 48 1014.9
20260905191536 101 225 0.0 1.0 0.00 0.00 0.00 47 1014.9
20260905191035 100 99 0.0 1.0 0.00 0.00 0.00 49 1015.0
20260905190533 100 72 0.0 1.0 0.00 0.00 0.00 50 1015.0
20260905190033 99 0 0.0 0.0 0.00 0.00 0.00 51 1015.1
20260905185532 99 348 0.0 0.0 0.00 0.00 0.00 51 1015.1
20260905185031 98 118 0.0 0.0 0.00 0.00 0.00 54 1015.1
20260905184530 98 86 0.0 0.0 0.00 0.00 0.00 55 1015.2
20260905184029 97 26 0.0 0.0 0.00 0.00 0.00 55 1015.2
20260905183528 97 352 0.0 1.0 0.00 0.00 0.00 53 1015.2
20260905183027 97 0 0.0 1.0 0.00 0.00 0.00 54 1015.3
20260905182526 97 5 0.0 1.0 0.00 0.00 0.00 53 1015.3
20260905182025 97 4 0.0 1.0 0.00 0.00 0.00 56 1015.3
20260905181523 96 25 0.0 0.0 0.00 0.00 0.00 56 1015.3
20260905181022 96 136 0.0 1.0 0.00 0.00 0.00 56 1015.4
20260905180522 96 0 0.0 0.0 0.00 0.00 0.00 55 1015.4
20260905180020 96 0 0.0 0.0 0.00 0.00 0.00 59 1015.5
20260905175519 95 6 0.0 1.0 0.00 0.00 0.00 57 1015.4
20260905175018 95 342 0.0 1.0 0.00 0.00 0.00 58 1015.4
20260905174517 95 173 0.0 1.0 0.00 0.00 0.00 58 1015.5
20260905174015 94 323 0.0 1.0 0.00 0.00 0.00 58 1074.4
20260905173515 94 262 0.0 1.0 0.00 0.00 0.00 57 1074.5
20260905173014 94 49 0.0 0.0 0.00 0.00 0.00 59 1015.6
20260905172513 94 132 0.0 1.0 0.00 0.00 0.00 59 1015.6
20260905172012 94 3 0.0 1.0 0.00 0.00 0.00 59 1015.7
20260905171511 94 14 1.0 1.0 0.00 0.00 0.00 60 1015.7
20260905171011 94 2 0.0 1.0 0.00 0.00 0.00 61 1015.8
20260905170509 93 346 0.0 1.0 0.00 0.00 0.00 61 1015.8
20260905170008 93 1 0.0 1.0 0.00 0.00 0.00 61 1015.8
20260905165507 93 28 0.0 1.0 0.00 0.00 0.00 61 1015.8
20260905165006 93 357 0.0 1.0 0.00 0.00 0.00 62 1015.8
20260905164505 92 0 0.0 0.0 0.00 0.00 0.00 63 1015.9
20260905164004 92 354 0.0 0.0 0.00 0.00 0.00 63 1016.0
20260905163504 92 0 0.0 0.0 0.00 0.00 0.00 63 1016.1
20260905163002 92 0 0.0 0.0 0.00 0.00 0.00 64 1016.2
20260905162501 92 35 0.0 0.0 0.00 0.00 0.00 63 1016.2
20260905162000 92 357 0.0 1.0 0.00 0.00 0.00 62 1016.3
20260905161459 92 39 0.0 0.0 0.00 0.00 0.00 64 1016.3
20260905160958 93 255 0.0 0.0 0.00 0.00 0.00 63 1016.3
20260905160454 93 346 0.0 1.0 0.00 0.00 0.00 62 1016.3
20260905155954 94 355 0.0 1.0 0.00 0.00 0.00 62 1016.4
20260905155452 94 348 0.0 1.0 0.00 0.00 0.00 62 1016.3
20260905154951 93 0 0.0 0.0 0.00 0.00 0.00 64 1016.4
20260905154451 93 348 0.0 1.0 0.00 0.00 0.00 65 1016.4
20260905153950 92 329 0.0 0.0 0.00 0.00 0.00 65 1016.3
20260905153450 92 0 0.0 1.0 0.00 0.00 0.00 66 1016.3
20260905152948 92 7 0.0 0.0 0.00 0.00 0.00 66 1016.3
20260905152448 91 0 0.0 0.0 0.00 0.00 0.00 67 1016.2
20260905151947 90 5 0.0 0.0 0.00 0.00 0.00 68 1016.2
20260905151447 89 0 0.0 0.0 0.00 0.00 0.00 70 1016.2
20260905150946 88 0 0.0 0.0 0.00 0.00 0.00 72 1016.1
20260905150445 86 0 0.0 0.0 0.00 0.00 0.00 74 1016.0
20260905145945 85 0 0.0 0.0 0.00 0.00 0.00 77 1015.9
20260905145444 84 1 0.0 0.0 0.00 0.00 0.00 78 1015.9
20260905144943 84 0 0.0 0.0 0.00 0.00 0.00 80 1015.8
20260905144442 83 247 0.0 0.0 0.00 0.00 0.00 80 1015.8
20260905143941 83 0 0.0 0.0 0.00 0.00 0.00 83 1015.8
20260905143441 82 0 0.0 0.0 0.00 0.00 0.00 83 1015.8
20260905142940 82 0 0.0 0.0 0.00 0.00 0.00 84 1015.8
20260905142439 82 0 0.0 0.0 0.00 0.00 0.00 86 1015.8
20260905141938 82 71 0.0 0.0 0.00 0.00 0.00 87 1015.8
20260905141437 81 0 0.0 0.0 0.00 0.00 0.00 87 1015.8
20260905140935 81 298 0.0 0.0 0.00 0.00 0.00 88 1015.8
20260905140433 81 0 0.0 0.0 0.00 0.00 0.00 88 1015.8
20260905135932 80 209 0.0 0.0 0.00 0.00 0.00 88 1015.8
20260905135431 80 89 0.0 0.0 0.00 0.00 0.00 90 1015.7
20260905134930 79 147 0.0 0.0 0.00 0.00 0.00 91 1015.6
20260905134429 79 0 0.0 0.0 0.00 0.00 0.00 92 1015.6
20260905133928 78 177 0.0 0.0 0.00 0.00 0.00 92 1015.5
20260905133427 78 0 0.0 0.0 0.00 0.00 0.00 93 1015.5
20260905132926 77 0 0.0 0.0 0.00 0.00 0.00 94 1015.3
20260905132423 77 0 0.0 0.0 0.00 0.00 0.00 96 1015.0
20260905131923 76 0 0.0 0.0 0.00 0.00 0.00 97 1014.8
20260905131422 76 0 0.0 0.0 0.00 0.00 0.00 98 1076.4
20260905130921 76 0 0.0 0.0 0.00 0.00 0.00 99 1076.3
20260905130420 75 0 0.0 0.0 0.00 0.00 0.00 99 1076.3
20260905125919 75 0 0.0 0.0 0.00 0.00 0.00 99 1014.3
20260905125419 75 0 0.0 0.0 0.00 0.00 0.00 99 1014.3
20260905124918 74 0 0.0 0.0 0.00 0.00 0.00 99 1014.3
20260905124417 74 337 0.0 0.0 0.00 0.00 0.00 99 1014.3
20260905123916 74 0 0.0 0.0 0.00 0.00 0.00 99 1014.3
20260905123415 74 0 0.0 0.0 0.00 0.00 0.00 99 1014.4
20260905122914 74 0 0.0 0.0 0.00 0.00 0.00 99 1014.4
20260905122413 74 0 0.0 0.0 0.00 0.00 0.00 99 1014.4
20260905121912 74 0 0.0 0.0 0.00 0.00 0.00 99 1014.4
20260905121411 73 0 0.0 0.0 0.00 0.00 0.00 99 1014.3
20260905120910 73 0 0.0 0.0 0.00 0.00 0.00 99 1014.2
20260905120409 73 0 0.0 0.0 0.00 0.00 0.00 99 1014.2
20260905115908 73 312 0.0 0.0 0.00 0.00 0.00 99 1014.2
20260905115407 73 0 0.0 0.0 0.00 0.00 0.00 99 1014.1
20260905114903 73 0 0.0 0.0 0.00 0.00 0.00 99 1014.0
20260905114401 73 0 0.0 0.0 0.00 0.00 0.00 99 1014.0
20260905113900 73 0 0.0 0.0 0.00 0.00 0.00 99 1014.0
20260905113359 73 287 0.0 0.0 0.00 0.00 0.00 99 1014.1
20260905112858 73 305 0.0 0.0 0.00 0.00 0.00 98 1014.0
20260905112356 73 0 0.0 0.0 0.00 0.00 0.00 98 1014.0
20260905111855 73 55 0.0 0.0 0.00 0.00 0.00 98 1013.9
20260905111355 73 0 0.0 0.0 0.00 0.00 0.00 98 1013.9
20260905110854 73 0 0.0 0.0 0.00 0.00 0.00 98 1013.9
20260905110353 73 0 0.0 0.0 0.00 0.00 0.00 98 1013.8
20260905105852 73 0 0.0 0.0 0.00 0.00 0.00 98 1013.8
20260905105351 73 0 0.0 0.0 0.00 0.00 0.00 98 1013.8
20260905104851 73 0 0.0 0.0 0.00 0.00 0.00 98 1013.8
20260905104350 73 0 0.0 0.0 0.00 0.00 0.00 98 1013.8
20260905103850 73 0 0.0 0.0 0.00 0.00 0.00 98 1013.7
20260905103349 74 0 0.0 0.0 0.00 0.00 0.00 98 1013.7
20260905102848 74 0 0.0 0.0 0.00 0.00 0.00 98 1013.7
20260905102347 74 299 0.0 0.0 0.00 0.00 0.00 98 1013.6
20260905101846 74 0 0.0 0.0 0.00 0.00 0.00 98 1013.6
20260905101345 74 0 0.0 0.0 0.00 0.00 0.00 98 1013.6
20260905100844 74 0 0.0 0.0 0.00 0.00 0.00 98 1013.6
20260905100343 74 0 0.0 0.0 0.00 0.00 0.00 98 1013.6
20260905095842 74 0 0.0 0.0 0.00 0.00 0.00 98 1013.6
20260905095341 74 332 0.0 0.0 0.00 0.00 0.00 98 1013.6
20260905094840 74 0 0.0 0.0 0.00 0.00 0.00 98 1013.6
20260905094340 74 0 0.0 0.0 0.00 0.00 0.00 97 1013.6
20260905093839 74 319 0.0 0.0 0.00 0.00 0.00 97 1013.7
20260905093338 74 0 0.0 0.0 0.00 0.00 0.00 97 1013.7
20260905092838 74 0 0.0 0.0 0.00 0.00 0.00 97 1013.6
20260905092338 74 0 0.0 0.0 0.00 0.00 0.00 97 1013.6
20260905091836 74 0 0.0 0.0 0.00 0.00 0.00 97 1013.6
20260905091336 74 0 0.0 0.0 0.00 0.00 0.00 97 1013.6
20260905090835 74 0 0.0 0.0 0.00 0.00 0.00 97 1013.6
20260905090334 74 0 0.0 0.0 0.00 0.00 0.00 97 1013.7
20260905085833 74 0 0.0 0.0 0.00 0.00 0.00 97 1013.7
20260905085332 74 0 0.0 0.0 0.00 0.00 0.00 97 1013.7
20260905084831 74 0 0.0 0.0 0.00 0.00 0.00 97 1013.7
20260905084330 74 0 0.0 0.0 0.00 0.00 0.00 97 1075.8
20260905083829 74 0 0.0 0.0 0.00 0.00 0.00 97 1013.7
20260905083328 74 295 0.0 0.0 0.00 0.00 0.00 96 1013.7
20260905082827 74 0 0.0 0.0 0.00 0.00 0.00 96 1013.7
20260905082326 75 0 0.0 0.0 0.00 0.00 0.00 96 1013.8
20260905081825 75 0 0.0 0.0 0.00 0.00 0.00 96 1013.7
20260905081324 75 0 0.0 0.0 0.00 0.00 0.00 96 1013.7
20260905080824 75 0 0.0 0.0 0.00 0.00 0.00 96 1013.6
20260905080323 75 0 0.0 0.0 0.00 0.00 0.00 96 1013.7
20260905075821 75 0 0.0 0.0 0.00 0.00 0.00 96 1013.7
20260905075320 75 0 0.0 0.0 0.00 0.00 0.00 96 1013.7
20260905074818 75 0 0.0 0.0 0.00 0.00 0.00 96 1013.7
20260905074317 75 0 0.0 0.0 0.00 0.00 0.00 96 1013.7
20260905073816 75 0 0.0 0.0 0.00 0.00 0.00 96 1013.7
20260905073316 75 318 0.0 0.0 0.00 0.00 0.00 95 1013.8
20260905072815 75 0 0.0 0.0 0.00 0.00 0.00 95 1013.8
20260905072315 75 0 0.0 0.0 0.00 0.00 0.00 95 1013.9
20260905071814 75 0 0.0 0.0 0.00 0.00 0.00 95 1013.9
20260905071312 75 0 0.0 0.0 0.00 0.00 0.00 95 1014.0
20260905070811 75 0 0.0 0.0 0.00 0.00 0.00 95 1014.1